K8JCL-13 Weather Reports


time (UTC)temp
F
wind
direction
speed
knots
gust
knots
rain 1hr
in
rain 24hr
in
rain mn
in
humidity
%
barometer
mb
20260903010852 83 29 0.0 0.0 0.00 0.00 0.00 81 1016.4
20260903010347 83 38 0.0 0.0 0.00 0.00 0.00 81 1016.5
20260903005845 83 24 0.0 0.0 0.00 0.00 0.00 81 1016.4
20260903005340 83 29 0.0 0.0 0.00 0.00 0.00 80 1016.3
20260903004837 83 35 0.0 0.0 0.00 0.00 0.00 80 1016.4
20260903004332 83 15 0.0 0.0 0.00 0.00 0.00 80 1016.3
20260903003827 84 16 0.0 0.0 0.00 0.00 0.00 79 1016.3
20260903003322 84 38 0.0 0.0 0.00 0.00 0.00 79 1016.3
20260903002822 84 28 0.0 0.0 0.00 0.00 0.00 78 1016.3
20260903002322 84 34 0.0 0.0 0.00 0.00 0.00 78 1016.4
20260903001816 85 25 0.0 0.0 0.00 0.00 0.00 77 1016.3
20260903001312 85 7 0.0 0.0 0.00 0.00 0.00 76 1016.1
20260903000811 86 24 0.0 0.0 0.00 0.00 0.00 75 1016.0
20260903000306 86 359 0.0 0.0 0.00 0.00 0.00 75 1016.4
20260902235804 86 22 0.0 0.0 0.00 0.00 0.00 75 1016.0
20260902235300 86 18 0.0 0.0 0.00 0.00 0.00 74 1016.1
20260902234754 86 25 0.0 0.0 0.00 0.00 0.00 73 1016.3
20260902234253 87 17 0.0 0.0 0.00 0.00 0.00 73 1016.3
20260902233747 87 92 0.0 0.0 0.00 0.00 0.00 73 1016.1
20260902233242 87 200 0.0 0.0 0.00 0.00 0.00 72 1016.3
20260902232740 87 52 0.0 0.0 0.00 0.00 0.00 71 1016.1
20260902232235 88 21 0.0 0.9 0.00 0.00 0.00 71 1016.2
20260902231735 88 43 0.0 0.0 0.00 0.00 0.00 71 1016.0
20260902231230 88 62 0.9 1.7 0.00 0.00 0.00 69 1016.3
20260902230725 89 25 0.0 0.0 0.00 0.00 0.00 69 1016.0
20260902230224 89 43 0.0 0.0 0.00 0.00 0.00 69 1016.1
20260902225719 89 342 0.0 0.0 0.00 0.00 0.00 69 1016.1
20260902225219 89 99 0.0 0.9 0.00 0.00 0.00 69 1016.3
20260902224717 89 62 0.0 0.0 0.00 0.00 0.00 68 1016.2
20260902224213 89 49 0.0 0.0 0.00 0.00 0.00 68 1016.2
20260902223709 89 64 0.9 0.9 0.00 0.00 0.00 68 1016.3
20260902223208 90 344 0.0 0.0 0.00 0.00 0.00 68 1016.3
20260902222707 90 343 0.9 1.7 0.00 0.00 0.00 67 1016.3
20260902222207 90 93 0.9 0.9 0.00 0.00 0.00 66 1016.2
20260902221701 90 126 1.7 2.6 0.00 0.00 0.00 66 1016.2
20260902221154 90 303 0.9 0.9 0.00 0.00 0.00 67 1016.3
20260902220650 91 92 0.9 0.9 0.00 0.00 0.00 65 1016.4
20260902220145 90 214 0.9 0.9 0.00 0.00 0.00 66 1016.5
20260902215641 90 131 0.0 0.0 0.00 0.00 0.00 66 1016.6
20260902215137 90 21 0.0 0.0 0.00 0.00 0.00 67 1016.4
20260902214631 91 137 0.0 0.9 0.00 0.00 0.00 66 1016.5
20260902214131 91 44 0.0 0.0 0.00 0.00 0.00 66 1016.3
20260902213626 91 356 0.0 0.9 0.00 0.00 0.00 64 1016.3
20260902213124 91 52 0.9 0.9 0.00 0.00 0.00 66 1016.3
20260902212615 91 66 0.0 0.9 0.00 0.00 0.00 66 1016.5
20260902212110 91 12 0.0 0.9 0.00 0.00 0.00 65 1016.7
20260902211607 91 358 2.6 2.6 0.00 0.00 0.00 64 1016.7
20260902211056 91 51 0.0 0.0 0.00 0.00 0.00 65 1016.4
20260902210555 91 331 2.6 2.6 0.00 0.00 0.00 63 1016.8
20260902210050 92 41 0.0 0.0 0.00 0.00 0.00 66 1016.7
20260902205549 91 318 0.0 0.0 0.00 0.00 0.00 65 1016.6
20260902205044 91 28 0.0 0.0 0.00 0.00 0.00 64 1016.6
20260902204539 92 249 0.9 0.9 0.00 0.00 0.00 64 1016.9
20260902204034 91 66 0.0 0.0 0.00 0.00 0.00 65 1016.7
20260902203529 92 11 0.0 0.0 0.00 0.00 0.00 65 1017.0
20260902203028 92 14 0.0 0.0 0.00 0.00 0.00 65 1016.9
20260902202524 92 12 0.0 0.9 0.00 0.00 0.00 64 1016.9
20260902202020 92 291 1.7 4.3 0.00 0.00 0.00 63 1016.9
20260902201515 92 297 0.9 0.9 0.00 0.00 0.00 63 1017.1
20260902201009 92 340 0.0 0.9 0.00 0.00 0.00 64 1016.8
20260902200504 92 19 3.5 4.3 0.00 0.00 0.00 62 1016.9
20260902200000 92 32 0.0 0.0 0.00 0.00 0.00 64 1017.0
20260902195456 94 79 1.7 2.6 0.00 0.00 0.00 62 1016.9
20260902194949 94 348 0.0 0.9 0.00 0.00 0.00 60 1017.0
20260902194449 94 220 0.9 0.9 0.00 0.00 0.00 60 1017.2
20260902193945 94 129 0.9 0.9 0.00 0.00 0.00 62 1017.2
20260902193440 94 12 0.9 0.9 0.00 0.00 0.00 63 1017.4
20260902192939 93 344 0.0 0.0 0.00 0.00 0.00 63 1017.4
20260902192437 94 5 1.7 2.6 0.00 0.00 0.00 60 1017.6
20260902191936 93 288 2.6 2.6 0.00 0.00 0.00 60 1017.5
20260902191432 94 23 0.0 0.9 0.00 0.00 0.00 60 1017.6
20260902190927 94 349 1.7 1.7 0.00 0.00 0.00 58 1017.6
20260902190422 94 314 0.9 0.9 0.00 0.00 0.00 58 1017.5
20260902185918 95 292 1.7 1.7 0.00 0.00 0.00 60 1017.8
20260902185415 94 357 1.7 1.7 0.00 0.00 0.00 60 1017.8
20260902184915 95 9 0.0 0.9 0.00 0.00 0.00 61 1017.6
20260902184409 94 359 0.0 0.0 0.00 0.00 0.00 58 1017.8
20260902183906 93 87 0.0 0.0 0.00 0.00 0.00 62 1017.9
20260902183402 95 48 0.9 0.9 0.00 0.00 0.00 59 1017.9
20260902182857 95 339 0.9 0.9 0.00 0.00 0.00 60 1018.1
20260902182354 95 52 0.0 0.9 0.00 0.00 0.00 61 1017.8
20260902181850 95 303 1.7 2.6 0.00 0.00 0.00 60 1018.1
20260902181345 95 289 0.9 0.9 0.00 0.00 0.00 59 1017.8
20260902180839 95 22 0.0 0.9 0.00 0.00 0.00 62 1017.9
20260902180335 93 115 0.9 1.7 0.00 0.00 0.00 65 1018.0
20260902175830 92 358 2.6 2.6 0.00 0.00 0.00 63 1018.2
20260902175325 93 319 0.9 0.9 0.00 0.00 0.00 62 1018.1
20260902174820 95 290 0.9 0.9 0.00 0.00 0.00 61 1018.3
20260902174317 94 301 2.6 2.6 0.00 0.00 0.00 61 1018.2
20260902173813 92 265 2.6 4.3 0.00 0.00 0.00 67 1018.4
20260902173307 93 96 0.9 1.7 0.00 0.00 0.00 62 1018.3
20260902172801 93 349 1.7 1.7 0.00 0.00 0.00 63 1018.6
20260902172255 93 309 1.7 1.7 0.00 0.00 0.00 64 1018.8
20260902171750 92 2 0.9 0.9 0.00 0.00 0.00 67 1018.7
20260902171246 93 298 3.5 4.3 0.00 0.00 0.00 65 1018.7
20260902170742 92 1 0.0 0.9 0.00 0.00 0.00 66 1018.8
20260902170237 94 282 2.6 4.3 0.00 0.00 0.00 64 1018.7
20260902165732 94 275 0.9 1.7 0.00 0.00 0.00 66 1018.6
20260902165226 94 41 0.0 0.0 0.00 0.00 0.00 67 1018.7
20260902164720 93 333 0.9 0.9 0.00 0.00 0.00 67 1018.6
20260902164214 93 4 0.0 0.0 0.00 0.00 0.00 65 1018.8
20260902163709 92 313 0.9 0.9 0.00 0.00 0.00 68 1018.8
20260902163204 93 318 1.7 1.7 0.00 0.00 0.00 66 1018.8
20260902162702 93 116 0.0 0.9 0.00 0.00 0.00 67 1018.8
20260902162156 93 144 0.9 1.7 0.00 0.00 0.00 68 1018.7
20260902161652 91 4 0.0 0.0 0.00 0.00 0.00 71 1018.8
20260902161147 92 43 0.0 0.9 0.00 0.00 0.00 71 1018.8
20260902160645 92 143 0.9 0.9 0.00 0.00 0.00 67 1018.8
20260902160138 92 8 0.0 0.0 0.00 0.00 0.00 69 1018.9
20260902155637 91 304 0.9 0.9 0.00 0.00 0.00 70 1018.7
20260902155135 91 15 0.0 0.0 0.00 0.00 0.00 70 1018.8
20260902154630 90 335 0.9 0.9 0.00 0.00 0.00 70 1019.0
20260902154126 91 28 2.6 2.6 0.00 0.00 0.00 69 1018.8
20260902153625 91 184 0.9 0.9 0.00 0.00 0.00 70 1019.0
20260902153120 89 39 0.9 0.9 0.00 0.00 0.00 73 1018.9
20260902152616 89 57 0.0 0.0 0.00 0.00 0.00 73 1019.1
20260902152111 90 310 1.7 1.7 0.00 0.00 0.00 71 1019.0
20260902151607 89 320 0.9 1.7 0.00 0.00 0.00 72 1018.8
20260902151107 89 10 0.0 0.0 0.00 0.00 0.00 74 1019.1
20260902150601 88 303 0.9 1.7 0.00 0.00 0.00 73 1019.1
20260902150057 88 286 0.9 1.7 0.00 0.00 0.00 75 1019.1
20260902145552 89 283 0.9 0.9 0.00 0.00 0.00 71 1019.1
20260902145051 88 333 0.9 1.7 0.00 0.00 0.00 73 1019.1
20260902144548 87 286 0.9 0.9 0.00 0.00 0.00 74 1019.1
20260902144043 87 344 0.9 1.7 0.00 0.00 0.00 76 1019.2
20260902143537 87 343 1.7 1.7 0.00 0.00 0.00 75 1019.0
20260902143033 87 33 0.0 0.9 0.00 0.00 0.00 76 1019.2
20260902142528 86 344 0.9 0.9 0.00 0.00 0.00 76 1019.0
20260902142024 86 10 0.9 0.9 0.00 0.00 0.00 77 1019.0
20260902141524 86 333 0.9 0.9 0.00 0.00 0.00 76 1019.0
20260902141019 86 282 1.7 1.7 0.00 0.00 0.00 76 1019.1
20260902140514 86 329 0.9 0.9 0.00 0.00 0.00 77 1019.3
20260902140009 86 38 0.0 0.0 0.00 0.00 0.00 77 1018.9
20260902135504 85 17 0.0 0.9 0.00 0.00 0.00 78 1018.9
20260902135003 84 341 0.9 0.9 0.00 0.00 0.00 78 1018.9
20260902134500 85 9 0.0 0.0 0.00 0.00 0.00 78 1019.1
20260902133959 84 11 0.0 0.0 0.00 0.00 0.00 79 1019.0
20260902133454 85 271 0.9 1.7 0.00 0.00 0.00 76 1019.0
20260902132949 85 46 0.0 0.9 0.00 0.00 0.00 79 1018.9
20260902132444 83 53 0.0 0.0 0.00 0.00 0.00 80 1019.2
20260902131939 83 59 0.0 0.0 0.00 0.00 0.00 80 1019.0
20260902131436 83 337 0.0 0.9 0.00 0.00 0.00 80 1018.9
20260902130935 84 75 0.0 0.0 0.00 0.00 0.00 81 1019.1
20260902130432 83 1 0.0 0.0 0.00 0.00 0.00 80 1018.9
20260902125931 83 23 0.9 0.9 0.00 0.00 0.00 81 1018.9
20260902125427 83 337 0.9 0.9 0.00 0.00 0.00 80 1019.3
20260902124923 82 47 0.0 0.0 0.00 0.00 0.00 81 1019.1
20260902124419 82 98 0.0 0.0 0.00 0.00 0.00 82 1018.9
20260902123914 82 42 0.0 0.0 0.00 0.00 0.00 82 1018.8
20260902123410 82 76 0.9 0.9 0.00 0.00 0.00 83 1018.9
20260902122908 81 35 0.0 0.0 0.00 0.00 0.00 83 1018.8
20260902122404 81 54 0.0 0.0 0.00 0.00 0.00 84 1018.8
20260902121859 80 254 0.0 0.0 0.00 0.00 0.00 84 1018.8
20260902121354 80 25 0.0 0.9 0.00 0.00 0.00 85 1018.9
20260902120849 79 22 0.0 0.0 0.00 0.00 0.00 87 1018.9
20260902120346 78 41 0.0 0.0 0.00 0.00 0.00 88 1018.8
20260902115840 78 35 0.0 0.0 0.00 0.00 0.00 88 1018.7
20260902115337 77 35 0.0 0.0 0.00 0.00 0.00 89 1018.6
20260902114833 77 16 0.0 0.0 0.00 0.00 0.00 90 1018.5
20260902114328 76 39 0.0 0.0 0.00 0.00 0.00 91 1018.2
20260902113829 76 38 0.0 0.0 0.00 0.00 0.00 92 1018.3
20260902113325 75 38 0.0 0.0 0.00 0.00 0.00 92 1018.2
20260902112823 75 30 0.0 0.0 0.00 0.00 0.00 92 1018.3
20260902112320 75 52 0.0 0.0 0.00 0.00 0.00 93 1018.3
20260902111815 75 24 0.0 0.0 0.00 0.00 0.00 92 1018.3
20260902111312 75 21 0.0 0.0 0.00 0.00 0.00 93 1018.3
20260902110807 75 43 0.0 0.0 0.00 0.00 0.00 93 1018.3
20260902110303 74 29 0.0 0.0 0.00 0.00 0.00 93 1018.0
20260902105803 74 16 0.0 0.0 0.00 0.00 0.00 94 1018.1
20260902105258 74 17 0.0 0.0 0.00 0.00 0.00 94 1018.0
20260902104753 74 26 0.0 0.0 0.00 0.00 0.00 94 1018.2
20260902104249 74 19 0.0 0.0 0.00 0.00 0.00 94 1018.0
20260902103748 74 16 0.0 0.0 0.00 0.00 0.00 94 1018.1
20260902103243 74 13 0.0 0.0 0.00 0.00 0.00 94 1018.1
20260902102738 74 25 0.0 0.0 0.00 0.00 0.00 94 1018.0
20260902102236 74 28 0.0 0.0 0.00 0.00 0.00 95 1018.0
20260902101731 74 34 0.0 0.0 0.00 0.00 0.00 95 1018.1
20260902101226 74 24 0.0 0.0 0.00 0.00 0.00 95 1017.9
20260902100725 74 15 0.0 0.0 0.00 0.00 0.00 94 1018.0
20260902100220 74 350 0.0 0.0 0.00 0.00 0.00 94 1018.1
20260902095719 75 17 0.0 0.0 0.00 0.00 0.00 94 1018.0
20260902095214 75 14 0.0 0.0 0.00 0.00 0.00 94 1018.0
20260902094709 75 30 0.0 0.0 0.00 0.00 0.00 94 1018.3
20260902094206 75 32 0.0 0.0 0.00 0.00 0.00 94 1017.9
20260902093704 75 23 0.0 0.0 0.00 0.00 0.00 94 1017.9
20260902093159 75 28 0.0 0.0 0.00 0.00 0.00 94 1018.1
20260902092654 75 27 0.0 0.0 0.00 0.00 0.00 94 1018.0
20260902092149 75 24 0.0 0.0 0.00 0.00 0.00 94 1017.8
20260902091643 75 32 0.0 0.0 0.00 0.00 0.00 94 1017.9
20260902091140 74 25 0.0 0.0 0.00 0.00 0.00 94 1017.8
20260902090636 74 29 0.0 0.0 0.00 0.00 0.00 95 1017.9
20260902090134 74 26 0.0 0.0 0.00 0.00 0.00 95 1017.8
20260902085630 74 23 0.0 0.0 0.00 0.00 0.00 95 1017.8
20260902085124 75 27 0.0 0.0 0.00 0.00 0.00 95 1017.6
20260902084621 74 35 0.0 0.0 0.00 0.00 0.00 95 1017.7
20260902084116 75 27 0.0 0.0 0.00 0.00 0.00 95 1017.7
20260902083611 75 28 0.0 0.0 0.00 0.00 0.00 95 1017.8
20260902083110 75 24 0.0 0.0 0.00 0.00 0.00 95 1017.8
20260902082606 75 27 0.0 0.0 0.00 0.00 0.00 94 1017.7
20260902082103 75 27 0.0 0.0 0.00 0.00 0.00 94 1017.7
20260902081559 75 25 0.0 0.0 0.00 0.00 0.00 94 1017.2
20260902081059 75 26 0.0 0.0 0.00 0.00 0.00 94 1017.5
20260902080554 75 2 0.0 0.0 0.00 0.00 0.00 94 1017.6
20260902080051 75 38 0.0 0.0 0.00 0.00 0.00 94 1017.6
20260902075550 75 26 0.0 0.0 0.00 0.00 0.00 94 1017.6
20260902075047 75 26 0.0 0.0 0.00 0.00 0.00 94 1017.5
20260902074542 75 25 0.0 0.0 0.00 0.00 0.00 94 1017.7
20260902074037 75 27 0.0 0.0 0.00 0.00 0.00 94 1017.4
20260902073532 75 21 0.0 0.0 0.00 0.00 0.00 94 1017.5
20260902073029 75 21 0.0 0.0 0.00 0.00 0.00 94 1017.5
20260902072524 75 31 0.0 0.0 0.00 0.00 0.00 95 1017.2
20260902072021 75 31 0.0 0.0 0.00 0.00 0.00 95 1017.5
20260902071520 75 26 0.0 0.0 0.00 0.00 0.00 94 1017.5
20260902071017 75 12 0.0 0.0 0.00 0.00 0.00 94 1017.5
20260902070512 75 21 0.0 0.0 0.00 0.00 0.00 94 1017.4
20260902070011 75 29 0.0 0.0 0.00 0.00 0.00 94 1017.5
20260902065506 75 18 0.0 0.0 0.00 0.00 0.00 93 1017.5
20260902065001 75 13 0.0 0.0 0.00 0.00 0.00 93 1017.4
20260902064456 75 15 0.0 0.0 0.00 0.00 0.00 93 1017.5
20260902063952 76 23 0.0 0.0 0.00 0.00 0.00 93 1017.5
20260902063451 76 23 0.0 0.0 0.00 0.00 0.00 93 1017.6
20260902062947 76 21 0.0 0.0 0.00 0.00 0.00 92 1017.5
20260902062446 76 23 0.0 0.0 0.00 0.00 0.00 92 1017.7
20260902061941 76 21 0.0 0.0 0.00 0.00 0.00 92 1017.5
20260902061436 76 21 0.0 0.0 0.00 0.00 0.00 91 1017.6
20260902060932 76 24 0.0 0.0 0.00 0.00 0.00 91 1017.6
20260902060428 77 23 0.0 0.0 0.00 0.00 0.00 91 1017.7
20260902055924 77 22 0.0 0.0 0.00 0.00 0.00 90 1017.4
20260902055420 77 21 0.0 0.0 0.00 0.00 0.00 90 1017.5
20260902054915 77 17 0.0 0.0 0.00 0.00 0.00 90 1017.7
20260902054410 77 22 0.0 0.0 0.00 0.00 0.00 90 1017.6
20260902053905 77 19 0.0 0.0 0.00 0.00 0.00 89 1017.6
20260902053401 77 26 0.0 0.0 0.00 0.00 0.00 89 1017.6
20260902052859 77 40 0.0 0.0 0.00 0.00 0.00 89 1017.4
20260902052355 77 21 0.0 0.0 0.00 0.00 0.00 89 1017.5
20260902051850 77 29 0.0 0.0 0.00 0.00 0.00 89 1017.4
20260902051349 77 29 0.0 0.0 0.00 0.00 0.00 89 1017.5
20260902050844 77 26 0.0 0.0 0.00 0.00 0.00 89 1017.2
20260902050343 77 21 0.0 0.0 0.00 0.00 0.00 89 1017.4
20260902045838 77 27 0.0 0.0 0.00 0.00 0.00 88 1017.6
20260902045334 78 19 0.0 0.0 0.00 0.00 0.00 88 1017.6
20260902044831 78 26 0.0 0.0 0.00 0.00 0.00 88 1017.4
20260902044326 78 27 0.0 0.0 0.00 0.00 0.00 88 1017.7
20260902043827 78 26 0.0 0.0 0.00 0.00 0.00 88 1017.7
20260902043321 78 32 0.0 0.0 0.00 0.00 0.00 88 1017.4
20260902042820 78 27 0.0 0.0 0.00 0.00 0.00 88 1017.5
20260902042315 78 21 0.0 0.0 0.00 0.00 0.00 88 1017.7
20260902041811 78 26 0.0 0.0 0.00 0.00 0.00 88 1017.7
20260902041311 78 31 0.0 0.0 0.00 0.00 0.00 87 1017.8
20260902040809 78 32 0.0 0.0 0.00 0.00 0.00 87 1017.8
20260902040305 78 14 0.0 0.0 0.00 0.00 0.00 87 1017.8
20260902035804 78 26 0.0 0.0 0.00 0.00 0.00 87 1017.5
20260902035300 78 27 0.0 0.0 0.00 0.00 0.00 87 1017.6
20260902034758 78 22 0.0 0.0 0.00 0.00 0.00 87 1017.5
20260902034254 78 21 0.0 0.0 0.00 0.00 0.00 87 1017.5
20260902033751 78 23 0.0 0.0 0.00 0.00 0.00 87 1017.4
20260902033246 79 18 0.0 0.0 0.00 0.00 0.00 86 1017.5
20260902032739 79 24 0.0 0.0 0.00 0.00 0.00 86 1017.4
20260902032234 79 19 0.0 0.0 0.00 0.00 0.00 86 1017.5
20260902031734 79 18 0.0 0.0 0.00 0.00 0.00 85 1017.6
20260902031229 79 20 0.0 0.0 0.00 0.00 0.00 85 1017.7
20260902030725 79 21 0.0 0.0 0.00 0.00 0.00 85 1017.6
20260902030220 79 20 0.0 0.0 0.00 0.00 0.00 85 1017.4
20260902025719 79 18 0.0 0.0 0.00 0.00 0.00 85 1017.6
20260902025214 79 20 0.0 0.0 0.00 0.00 0.00 85 1017.6
20260902024709 79 26 0.0 0.0 0.00 0.00 0.00 86 1017.6
20260902024204 79 26 0.0 0.0 0.00 0.00 0.00 85 1017.4
20260902023700 80 26 0.0 0.0 0.00 0.00 0.00 85 1017.4
20260902023155 80 20 0.0 0.0 0.00 0.00 0.00 84 1017.7
20260902022654 80 20 0.0 0.0 0.00 0.00 0.00 84 1017.6
20260902022150 80 13 0.0 0.0 0.00 0.00 0.00 84 1017.5
20260902021646 80 28 0.0 0.0 0.00 0.00 0.00 84 1017.4
20260902021140 80 20 0.0 0.0 0.00 0.00 0.00 85 1017.2
20260902020637 80 26 0.0 0.0 0.00 0.00 0.00 85 1017.4
20260902020132 80 20 0.0 0.0 0.00 0.00 0.00 85 1017.4
20260902015627 80 24 0.0 0.0 0.00 0.00 0.00 85 1017.4
20260902015124 80 27 0.0 0.0 0.00 0.00 0.00 85 1017.2
20260902014619 81 27 0.0 0.0 0.00 0.00 0.00 85 1017.4
20260902014115 81 22 0.0 0.0 0.00 0.00 0.00 84 1017.2
20260902013614 81 29 0.0 0.0 0.00 0.00 0.00 84 1017.4
20260902013110 81 19 0.0 0.0 0.00 0.00 0.00 83 1017.5
20260902012605 81 36 0.0 0.0 0.00 0.00 0.00 83 1017.1
20260902012100 81 18 0.0 0.0 0.00 0.00 0.00 83 1017.4
20260902011555 82 25 0.0 0.0 0.00 0.00 0.00 82 1017.1